DateTimeUTC,F1_A11,F1_S11,BsB_S11,BsG_S11,BsR_S11,BbsB_S11,BbsG_S11,BbsR_S11,BaB_A11,BaG_A11,BaR_A11,Tu_S11,T_S11,Uu_S11,U_S11,P_S11,T1_A11
2021-06-21T07:00:00Z,00000200,21000000,,,,,,,-000.05,0000.11,0000.07,17.5,24.7,00.3,00.2,0666.3,31.0
2021-06-21T07:01:00Z,00000200,21000000,,,,,,,0000.19,-000.01,0000.03,17.5,24.7,00.3,00.2,0666.3,31.0
2021-06-21T07:02:00Z,00000200,21000000,,,,,,,-000.46,0000.09,0000.23,17.6,24.7,00.3,00.2,0666.3,31.0
2021-06-21T07:03:00Z,00000200,61000000,,,,,,,0000.53,-000.05,-000.34,17.6,24.8,00.3,00.2,0666.3,31.1
2021-06-21T07:04:00Z,00000200,41000000,-001.01,0000.00,0000.06,0000.68,-000.16,0000.05,0000.21,-000.05,0000.24,17.9,24.7,00.4,00.2,0667.2,31.1
2021-06-21T07:05:00Z,00000200,01000000,-000.63,0000.35,0000.07,0000.03,-000.03,-000.07,0003.13,0002.97,0002.01,18.0,24.6,00.4,00.3,0667.3,31.0
2021-06-21T07:06:00Z,00000200,01000000,0007.73,0005.80,0002.99,0002.68,0001.52,0000.71,0151.97,0137.61,0105.59,17.9,24.6,00.6,00.4,0667.3,31.0
2021-06-21T07:07:00Z,00000200,01000000,0004.86,0003.50,0001.58,0001.42,0000.84,0000.27,0112.53,0102.08,0078.61,17.9,24.5,00.7,00.5,0667.3,31.0
2021-06-21T07:08:00Z,00000200,01000000,0003.30,0002.45,0001.64,0001.39,0000.66,0000.67,0082.51,0074.84,0057.50,17.8,24.5,00.9,00.6,0667.3,31.0
2021-06-21T07:09:00Z,00000200,01000000,0000.34,0000.87,0000.32,0000.47,-000.03,-000.20,0020.87,0019.14,0014.63,17.8,24.5,01.2,00.8,0667.3,31.0
2021-06-21T07:10:00Z,00000200,01000000,-000.15,0000.48,0000.11,0000.39,-000.03,0000.00,0010.49,0009.45,0007.27,17.7,24.4,01.5,01.0,0667.3,31.0
2021-06-21T07:11:00Z,00000200,01000000,-000.40,0000.33,0000.26,0000.38,-000.04,0000.33,0005.57,0005.32,0003.70,17.7,24.4,01.6,01.1,0667.3,31.0
2021-06-21T07:12:00Z,00000200,01000000,-000.17,0000.20,-000.03,-000.04,-000.26,-000.00,0002.40,0001.91,0001.67,17.7,24.4,01.8,01.2,0667.3,31.0
2021-06-21T07:13:00Z,00000200,01000000,0000.02,0000.32,0000.04,0000.31,0000.09,0000.30,0001.86,0001.74,0000.79,17.6,24.3,01.6,01.1,0667.3,31.0
2021-06-21T07:14:00Z,00000200,01000000,0000.17,0000.40,-000.07,0000.43,0000.24,0000.01,0002.84,0002.76,0002.37,17.6,24.3,01.6,01.1,0667.3,31.0
2021-06-21T07:15:00Z,00000200,01000000,-000.08,0000.13,0000.04,0000.12,0000.00,-000.07,0001.74,0001.24,0001.30,17.7,24.3,01.5,01.0,0667.3,31.0
2021-06-21T07:16:00Z,00000200,01000000,-000.18,0000.23,-000.26,0000.03,0000.22,-000.03,0000.81,0001.18,0000.49,17.8,24.4,01.6,01.1,0667.3,31.0
2021-06-21T07:17:00Z,00000200,01000000,-000.33,0000.00,-000.09,-000.04,0000.21,0000.10,0000.44,-000.14,0000.42,17.9,24.4,01.4,00.9,0667.3,31.0
2021-06-21T07:18:00Z,00000200,01000000,-000.07,0000.27,0000.02,0000.49,-000.26,0000.23,0000.51,0001.03,0000.42,17.9,24.4,01.4,00.9,0667.3,31.0
2021-06-21T07:19:00Z,00000200,01000000,-000.19,-000.08,-000.26,-000.13,0000.07,-000.04,0000.77,0000.31,0000.56,17.9,24.4,01.4,00.9,0667.3,31.0
2021-06-21T07:20:00Z,00000200,01000000,-000.24,0000.18,0000.06,-000.47,0000.15,-000.00,0000.80,0000.44,0000.31,17.8,24.4,01.3,00.9,0667.3,31.0
2021-06-21T07:21:00Z,00000200,01000000,0000.01,0000.08,-000.05,0000.33,0000.07,0000.11,0000.50,0000.87,0000.57,17.8,24.4,01.4,00.9,0667.3,31.0
2021-06-21T07:22:00Z,00000200,01000000,0000.13,0000.30,0000.11,0000.09,0000.09,0000.11,0001.26,0000.89,0000.42,17.7,24.3,01.4,00.9,0667.3,31.0
2021-06-21T07:23:00Z,00000200,01000000,0000.37,0000.15,0000.26,0000.57,-000.04,0000.47,0001.99,0001.70,0001.59,17.7,24.3,01.3,00.9,0667.3,31.0
2021-06-21T07:24:00Z,00000200,01000000,0000.09,0000.19,0000.06,0000.48,-000.08,0000.06,0007.55,0007.04,0005.02,17.7,24.3,01.3,00.9,0667.3,31.0
2021-06-21T07:25:00Z,00000200,01000000,-000.76,-000.08,0000.06,0000.45,0000.16,-000.12,0000.03,0000.11,0000.36,17.6,24.3,01.3,00.9,0667.3,31.0
2021-06-21T07:26:00Z,00000200,01000000,0000.06,-000.12,-000.05,0000.38,0000.04,-000.19,-000.20,-000.61,-000.17,17.6,24.2,01.2,00.8,0667.3,31.0
2021-06-21T07:27:00Z,00000200,01000000,-000.85,0000.23,-000.34,-000.20,-000.12,-000.10,0000.14,0000.35,0000.01,17.5,24.2,01.2,00.8,0667.3,31.0
2021-06-21T07:28:00Z,00000200,01000000,0000.42,0000.19,-000.11,0000.40,-000.13,-000.18,0000.43,0000.11,0000.11,17.5,24.2,01.2,00.8,0667.3,30.9
2021-06-21T07:29:00Z,00000200,01000000,-000.13,0000.33,0000.09,0000.37,0000.04,-000.31,0000.03,0000.41,0000.33,17.5,24.2,01.3,00.8,0667.3,31.0
2021-06-21T07:30:00Z,00000200,01000000,0000.87,0000.30,0000.22,0000.59,0000.12,-000.06,0000.19,0000.06,0000.08,17.6,24.2,01.3,00.9,0667.3,31.0
2021-06-21T07:31:00Z,00000200,01000000,0000.11,0000.36,-000.19,0000.25,0000.11,0000.07,-000.10,0000.48,0000.43,17.7,24.3,01.2,00.8,0667.3,31.0
2021-06-21T07:32:00Z,00000200,01000000,0000.06,0000.16,0000.37,0000.60,0000.25,0000.18,0001.93,0000.93,0000.30,17.7,24.3,01.3,00.9,0667.3,31.0
2021-06-21T07:33:00Z,00000200,01000000,-000.00,0000.33,-000.09,0000.37,-000.25,-000.02,0001.03,0001.27,0001.16,17.7,24.3,01.3,00.9,0667.3,31.0
2021-06-21T07:34:00Z,00000200,01000000,-000.52,0000.12,-000.13,0000.28,-000.13,-000.03,0001.65,0001.52,0001.02,17.7,24.3,01.4,00.9,0667.3,31.0
2021-06-21T07:35:00Z,00000200,01000000,0000.36,0000.25,-000.23,-000.14,-000.29,-000.24,-000.22,-000.02,-000.08,17.7,24.3,01.5,01.0,0667.3,31.0
2021-06-21T07:36:00Z,00000200,01000000,0000.47,0000.01,-000.05,0000.43,-000.06,0000.08,0000.47,0000.14,0000.22,17.6,24.2,01.4,01.0,0667.3,31.0
2021-06-21T07:37:00Z,00000200,01000000,-000.18,0000.09,-000.14,0000.47,0000.08,-000.19,-000.10,0000.09,0000.02,17.6,24.2,01.4,00.9,0667.3,31.0
2021-06-21T07:38:00Z,00000200,01000000,-000.51,0000.09,-000.13,-000.13,-000.20,0000.17,0000.10,-000.38,0000.07,17.6,24.2,01.4,00.9,0667.3,31.0
2021-06-21T07:39:00Z,00000200,01000000,-000.93,-000.01,0000.03,-000.16,-000.14,0000.19,-000.18,0000.28,-000.21,17.5,24.2,01.4,00.9,0667.3,31.0
2021-06-21T07:40:00Z,00000200,01000000,-000.17,0000.25,0000.04,0000.45,-000.10,-000.11,-000.01,-000.29,0000.10,17.5,24.2,01.4,00.9,0667.2,31.0
2021-06-21T07:41:00Z,00000200,01000000,0000.08,0000.04,-000.12,-000.09,0000.15,-000.27,0000.48,0000.19,0000.17,17.4,24.1,01.4,00.9,0667.3,31.0
2021-06-21T07:42:00Z,00000200,01000000,-000.03,0000.08,-000.04,0000.09,0000.21,0000.25,-000.15,0000.26,0000.10,17.4,24.1,01.3,00.9,0667.2,30.9
2021-06-21T07:43:00Z,00000200,01000000,-000.20,0000.10,-000.08,0000.37,-000.01,0000.17,-000.25,-000.19,-000.21,17.4,24.1,01.3,00.9,0667.2,31.0
2021-06-21T07:44:00Z,00000200,01000000,-000.19,0000.22,-000.01,0000.17,0000.10,0000.13,0000.21,0000.06,0000.05,17.4,24.1,01.3,00.9,0667.3,31.0
2021-06-21T07:45:00Z,00000200,01000000,-000.50,0000.25,0000.12,0000.20,-000.02,0000.13,0000.42,0000.32,0000.20,17.5,24.1,01.3,00.9,0667.3,31.0
2021-06-21T07:46:00Z,00000200,01000000,0000.07,0000.11,0000.16,0000.36,-000.19,-000.07,-000.07,0000.15,0000.04,17.6,24.2,01.3,00.9,0667.3,31.0
2021-06-21T07:47:00Z,00000200,01010000,-000.42,-000.03,-000.11,0000.19,-000.12,-000.05,-000.09,-000.05,0000.01,17.7,24.2,01.4,00.9,0667.3,31.0
2021-06-21T07:48:00Z,00000200,01000000,-000.37,0000.08,-000.26,0000.57,-000.10,-000.31,-000.05,-000.32,0000.13,17.7,24.2,01.3,00.9,0667.3,31.0
2021-06-21T07:49:00Z,00000200,01000000,-000.80,0000.33,0000.09,0000.38,0000.03,0000.13,0000.03,0000.50,-000.17,17.7,24.2,01.2,00.8,0667.3,31.0
2021-06-21T07:50:00Z,00000200,01000000,-000.34,0000.17,0000.02,-000.17,0000.05,0000.17,-000.23,-000.88,-000.50,17.7,24.2,01.2,00.8,0667.3,31.0
2021-06-21T07:51:00Z,00000200,01000000,-000.12,0000.23,0000.06,0000.15,0000.17,0000.12,-000.16,0000.12,0000.27,17.6,24.2,00.9,00.6,0667.3,31.0
2021-06-21T07:52:00Z,00000200,01000000,-000.42,-000.05,-000.01,0000.04,-000.01,0000.21,0000.18,0000.38,0000.19,17.6,24.2,01.0,00.7,0667.3,31.0
2021-06-21T07:53:00Z,00000200,01000000,-000.12,0000.27,0000.31,0000.43,0000.18,0000.07,0000.29,-000.21,0000.14,17.6,24.2,01.0,00.7,0667.3,31.0
2021-06-21T07:54:00Z,00000200,01000000,0000.02,0000.16,-000.12,0000.38,0000.11,0000.24,0000.18,0000.32,-000.12,17.5,24.2,01.1,00.7,0667.3,31.0
2021-06-21T07:55:00Z,00000200,01000000,0000.15,0000.52,-000.19,-000.14,-000.09,0000.20,0003.24,0002.99,0002.78,17.5,24.1,01.2,00.8,0667.3,31.0
2021-06-21T07:56:00Z,00000200,01000000,0001.43,0001.20,0000.54,0000.23,0000.20,0000.28,0027.58,0024.58,0018.46,17.5,24.1,01.2,00.8,0667.3,31.0
2021-06-21T07:57:00Z,00000200,41000000,,,,,,,0009.91,0009.68,0007.10,17.5,24.2,00.9,00.6,0667.3,31.0
2021-06-21T07:58:00Z,00000200,61000000,,,,,,,0000.34,-000.51,0000.40,17.1,24.3,01.1,00.7,0666.3,31.0
2021-06-21T07:59:00Z,00000200,21000000,,,,,,,0000.45,0000.94,0000.33,17.1,24.3,01.0,00.7,0666.3,31.0
